User: anonymous   Login
Location: Unspecified
(0.0000°N, 0.0000°E)
Time: 23:45:22
(UTC+00:00)
Language:

Transit 4A - Orbit

View from above orbital plane
View from above orbital plane
View from above satellite
View from above satellite

Ground track
Ground track

The orbit data is extracted from the following two-line orbital elements,

1 00116U 61015A   17349.38053017 -.00000056  00000-0  16515-4 0  9996
2 00116  66.8106 285.1280 0082037 288.6537  70.5648 13.91723996864965
Epoch (UTC): 15 December 2017 09:07:57
Eccentricity: 0.0082037
inclination: 66.8106°
perigee height: 863 km
apogee height: 982 km
right ascension of ascending node: 285.1280°
argument of perigee: 288.6537°
revolutions per day: 13.91723996
mean anomaly at epoch: 70.5648°
orbit number at epoch: 86496

The dashed part of the orbit path shows where the satellite is in the earth's shadow,  

DLR